| time (UTC) | temp F | wind direction | speed MPH | gust MPH | rain 1hr in | rain 24hr in | rain mn in | humidity % | barometer mb |
| 20260905150702 | 90 | 179 | 2.0 | 3.0 | 0.00 | 0.00 | 0.00 | 60 | 1016.6 |
| 20260905150203 | 89 | 205 | 2.0 | 6.0 | 0.00 | 0.00 | 0.00 | 61 | 1016.6 |
| 20260905143704 | 87 | 194 | 1.0 | 5.0 | 0.00 | 0.00 | 0.00 | 64 | 1016.4 |
| 20260905143202 | 87 | 196 | 2.0 | 7.0 | 0.00 | 0.00 | 0.00 | 64 | 1016.4 |
| 20260905140702 | 84 | 167 | 1.0 | 3.0 | 0.00 | 0.00 | 0.00 | 70 | 1016.4 |
| 20260905140203 | 84 | 167 | 1.0 | 6.0 | 0.00 | 0.00 | 0.00 | 70 | 1016.3 |
| 20260905133702 | 81 | 148 | 3.0 | 6.0 | 0.00 | 0.00 | 0.00 | 73 | 1016.3 |
| 20260905133203 | 80 | 168 | 1.0 | 5.0 | 0.00 | 0.00 | 0.00 | 73 | 1016.3 |
| 20260905130703 | 78 | 156 | 2.0 | 3.0 | 0.00 | 0.00 | 0.00 | 75 | 1016.2 |
| 20260905130203 | 78 | 155 | 3.0 | 6.0 | 0.00 | 0.00 | 0.00 | 75 | 1016.2 |
| 20260905123203 | 76 | 114 | 2.0 | 3.0 | 0.00 | 0.00 | 0.00 | 77 | 1015.9 |
| 20260905120704 | 76 | 144 | 1.0 | 3.0 | 0.00 | 0.00 | 0.00 | 77 | 1015.8 |
| 20260905113203 | 77 | 144 | 0.0 | 2.0 | 0.00 | 0.00 | 0.00 | 75 | 1015.6 |
| 20260905110703 | 78 | 144 | 0.0 | 1.0 | 0.00 | 0.00 | 0.00 | 74 | 1015.5 |
| 20260905110202 | 78 | 144 | 1.0 | 2.0 | 0.00 | 0.00 | 0.00 | 74 | 1015.5 |
| 20260905103203 | 78 | 144 | 0.0 | 2.0 | 0.00 | 0.00 | 0.00 | 74 | 1015.5 |
| 20260905100702 | 78 | 144 | 1.0 | 2.0 | 0.00 | 0.00 | 0.00 | 73 | 1015.4 |
| 20260905100203 | 78 | 144 | 1.0 | 2.0 | 0.00 | 0.00 | 0.00 | 72 | 1015.5 |
| 20260905093702 | 79 | 144 | 0.0 | 0.0 | 0.00 | 0.00 | 0.00 | 71 | 1015.5 |
| 20260905093203 | 79 | 144 | 0.0 | 2.0 | 0.00 | 0.00 | 0.00 | 71 | 1015.5 |
| 20260905090203 | 80 | 144 | 0.0 | 2.0 | 0.00 | 0.00 | 0.00 | 70 | 1015.4 |
| 20260905083703 | 79 | 144 | 1.0 | 2.0 | 0.00 | 0.00 | 0.00 | 71 | 1015.4 |
| 20260905080703 | 81 | 144 | 0.0 | 0.0 | 0.00 | 0.00 | 0.00 | 68 | 1015.1 |
| 20260905080204 | 81 | 143 | 0.0 | 2.0 | 0.00 | 0.00 | 0.00 | 68 | 1015.1 |
| 20260905073702 | 82 | 143 | 1.0 | 2.0 | 0.00 | 0.00 | 0.00 | 67 | 1015.1 |
| 20260905073202 | 82 | 143 | 1.0 | 2.0 | 0.00 | 0.00 | 0.00 | 67 | 1015.1 |
| 20260905070702 | 83 | 143 | 0.0 | 1.0 | 0.00 | 0.00 | 0.00 | 65 | 1015.2 |
| 20260905070203 | 83 | 143 | 1.0 | 2.0 | 0.00 | 0.00 | 0.00 | 65 | 1015.3 |
| 20260905063703 | 84 | 143 | 1.0 | 3.0 | 0.00 | 0.00 | 0.00 | 63 | 1015.1 |
| 20260905060703 | 85 | 161 | 1.0 | 3.0 | 0.00 | 0.00 | 0.00 | 61 | 1015.3 |
| 20260905060203 | 85 | 162 | 2.0 | 5.0 | 0.00 | 0.00 | 0.00 | 61 | 1015.2 |
| 20260905053702 | 86 | 161 | 1.0 | 2.0 | 0.00 | 0.00 | 0.00 | 60 | 1015.1 |
| 20260905053202 | 86 | 161 | 1.0 | 5.0 | 0.00 | 0.00 | 0.00 | 60 | 1015.2 |
| 20260905043702 | 87 | 145 | 3.0 | 6.0 | 0.00 | 0.00 | 0.00 | 59 | 1015.3 |
| 20260905043202 | 87 | 160 | 2.0 | 7.0 | 0.00 | 0.00 | 0.00 | 58 | 1015.3 |
| 20260905040703 | 88 | 155 | 4.0 | 5.0 | 0.00 | 0.00 | 0.00 | 58 | 1015.2 |
| 20260905033703 | 88 | 156 | 2.0 | 6.0 | 0.00 | 0.00 | 0.00 | 58 | 1015.1 |
| 20260905030702 | 89 | 140 | 3.0 | 8.0 | 0.00 | 0.00 | 0.00 | 57 | 1014.7 |
| 20260905030203 | 89 | 145 | 2.0 | 7.0 | 0.00 | 0.00 | 0.00 | 56 | 1014.6 |
| 20260905023703 | 90 | 144 | 3.0 | 6.0 | 0.00 | 0.00 | 0.00 | 56 | 1014.3 |
| 20260905023202 | 90 | 154 | 3.0 | 6.0 | 0.00 | 0.00 | 0.00 | 55 | 1014.3 |
| 20260905020703 | 91 | 165 | 3.0 | 5.0 | 0.00 | 0.00 | 0.00 | 54 | 1013.9 |
| 20260905020203 | 91 | 147 | 2.0 | 6.0 | 0.00 | 0.00 | 0.00 | 54 | 1013.8 |
| 20260905013703 | 92 | 151 | 3.0 | 6.0 | 0.00 | 0.00 | 0.00 | 52 | 1013.3 |
| 20260905013203 | 92 | 147 | 3.0 | 6.0 | 0.00 | 0.00 | 0.00 | 52 | 1013.1 |
| 20260905010703 | 94 | 135 | 3.0 | 6.0 | 0.00 | 0.00 | 0.00 | 50 | 1013.0 |
| 20260905010202 | 94 | 148 | 3.0 | 8.0 | 0.00 | 0.00 | 0.00 | 50 | 1013.0 |
| 20260905003703 | 95 | 136 | 5.0 | 7.0 | 0.00 | 0.00 | 0.00 | 48 | 1012.8 |
| 20260905000702 | 97 | 132 | 5.0 | 9.0 | 0.00 | 0.00 | 0.00 | 46 | 1012.8 |
| 20260905000204 | 97 | 149 | 5.0 | 12.0 | 0.00 | 0.00 | 0.00 | 45 | 1012.8 |
| 20260904233703 | 98 | 145 | 6.0 | 10.0 | 0.00 | 0.00 | 0.00 | 44 | 1012.9 |
| 20260904233203 | 98 | 150 | 3.0 | 13.0 | 0.00 | 0.00 | 0.00 | 45 | 1012.8 |
| 20260904230703 | 99 | 169 | 3.0 | 7.0 | 0.00 | 0.00 | 0.00 | 44 | 1012.8 |
| 20260904230203 | 99 | 183 | 3.0 | 13.0 | 0.00 | 0.00 | 0.00 | 45 | 1012.9 |
| 20260904223703 | 99 | 133 | 5.0 | 10.0 | 0.00 | 0.00 | 0.00 | 44 | 1012.7 |
| 20260904223203 | 99 | 126 | 5.0 | 12.0 | 0.00 | 0.00 | 0.00 | 45 | 1012.7 |
| 20260904220704 | 99 | 152 | 6.0 | 12.0 | 0.00 | 0.00 | 0.00 | 44 | 1012.7 |
| 20260904220203 | 99 | 150 | 7.0 | 15.0 | 0.00 | 0.00 | 0.00 | 45 | 1012.7 |
| 20260904213703 | 99 | 158 | 5.0 | 13.0 | 0.00 | 0.00 | 0.00 | 46 | 1012.8 |
| 20260904213203 | 99 | 161 | 6.0 | 15.0 | 0.00 | 0.00 | 0.00 | 46 | 1012.9 |
| 20260904210203 | 98 | 129 | 8.0 | 14.0 | 0.00 | 0.00 | 0.00 | 45 | 1013.3 |
| 20260904203702 | 99 | 210 | 3.0 | 9.0 | 0.00 | 0.00 | 0.00 | 46 | 1013.5 |
| 20260904203203 | 98 | 216 | 3.0 | 15.0 | 0.00 | 0.00 | 0.00 | 46 | 1013.6 |
| 20260904200703 | 98 | 144 | 7.0 | 13.0 | 0.00 | 0.00 | 0.00 | 47 | 1013.9 |
| 20260904200203 | 97 | 165 | 7.0 | 13.0 | 0.00 | 0.00 | 0.00 | 48 | 1013.9 |
| 20260904193703 | 98 | 142 | 6.0 | 12.0 | 0.00 | 0.00 | 0.00 | 49 | 1014.1 |
| 20260904193202 | 97 | 178 | 4.0 | 15.0 | 0.00 | 0.00 | 0.00 | 49 | 1014.2 |
| 20260904190703 | 96 | 142 | 7.0 | 17.0 | 0.00 | 0.00 | 0.00 | 50 | 1014.3 |
| 20260904190203 | 96 | 161 | 9.0 | 14.0 | 0.00 | 0.00 | 0.00 | 49 | 1014.4 |
| 20260904183702 | 96 | 120 | 7.0 | 14.0 | 0.00 | 0.00 | 0.00 | 51 | 1014.7 |
| 20260904183203 | 95 | 149 | 7.0 | 14.0 | 0.00 | 0.00 | 0.00 | 51 | 1014.8 |
| 20260904180703 | 94 | 174 | 6.0 | 12.0 | 0.00 | 0.00 | 0.00 | 54 | 1015.1 |
| 20260904180203 | 94 | 181 | 6.0 | 15.0 | 0.00 | 0.00 | 0.00 | 55 | 1015.1 |
| 20260904173203 | 92 | 207 | 3.0 | 14.0 | 0.00 | 0.00 | 0.00 | 58 | 1015.6 |
| 20260904170703 | 91 | 167 | 6.0 | 13.0 | 0.00 | 0.00 | 0.00 | 61 | 1015.8 |
| 20260904170202 | 91 | 131 | 6.0 | 14.0 | 0.00 | 0.00 | 0.00 | 60 | 1015.9 |
| 20260904163703 | 90 | 149 | 7.0 | 14.0 | 0.00 | 0.00 | 0.00 | 62 | 1016.0 |
| 20260904163202 | 90 | 155 | 7.0 | 14.0 | 0.00 | 0.00 | 0.00 | 62 | 1016.0 |
| 20260904160702 | 88 | 168 | 7.0 | 14.0 | 0.00 | 0.00 | 0.00 | 66 | 1016.3 |
| 20260904160203 | 88 | 162 | 3.0 | 12.0 | 0.00 | 0.00 | 0.00 | 66 | 1016.2 |